*** Residuals 17" off from prediction ***



  86P/Wild 3 

Epoch 2001 June 20.0 TT = JDT 2452080.5  

T 2001 June 18.59231 TT                                 Nakano

q   2.3102872            (2000.0)            P               Q

n   0.14220156     Peri.  179.16147     -0.31225442     +0.91540147

a   3.6352405      Node    72.61299     -0.87314893     -0.17117922

e   0.3644747      Incl.   15.43859     -0.37431020     -0.36433204

P   6.93

From 64 observations 1987-2001, mean residual 0".80.  Nongravitational

   parameters A1 = +0.48 +/- 0.19, A2 = +0.0877 +/- 0.0022.

Residuals in seconds of arc 

1987/                     940213 691  0.3-  2.0+    940713 360  1.1+  0.3-  

870129 691  1.8+  0.5+    940413 360  0.6+  0.1+    1997/                   

870129 691  1.7+  0.6+    940413 360  0.1+  0.0     971230 568  0.7+  0.6-  

870201 691  0.4-  1.4-    940501 691  0.6-  0.2-    971230 568  0.5+  0.8-  

870201 691  0.3+  1.4-    940501 691  0.7-  0.4-    2001/                   

870201 691  0.1+  0.8-    940501 691  0.7-  0.4-    010417 691  0.5+  0.2+  

870228 691  0.0   0.3+    940506 372 (4.2-  1.8+)   010417 691  0.1+  0.2+  

870228 691  0.1-  0.1+    940508 360  1.0+  0.8-    010417 691  0.3-  0.1+  

870228 691  0.3-  0.0     940508 360  0.3-  0.6-    010426 829  0.3+  0.2-  

870302 691  0.7-  0.2+    940516 360  0.4-  0.6-    010426 829  0.6-  0.7-  

870302 691  0.7-  0.4+    940516 360  0.0   1.1-    010517 867  0.1+  0.1-  

870622 707  0.6-  1.7-    940601 360  1.2+  0.0     010517 867  0.0   1.0-  

870622 707  0.1+  0.3+    940601 360  1.4+  0.6-    010517 867  0.4+  0.1-  

870721 691  1.5+  0.3+    940615 691  0.4-  0.2+    010518 867  0.1+  1.1-  

870722 691 (0.5-  2.5+)   940615 691  0.1-  0.6-    010518 867  0.7+  0.1-  

870722 691  0.1-  2.0+    940615 691  0.5-  0.1-    010518 867  0.9+  0.1-  

870722 691  0.3-  2.0+    940704 360  0.5+  0.0     010521 704 (2.5+  0.4-) 

1988/                     940704 360  1.7+  0.3-    010521 704  1.0-  0.1+  

880911 568  0.1+  1.1-    940706 691  0.6-  0.3+    010521 704  0.2+  0.1-  

1994/                     940706 691  0.6-  0.5+    010521 704 (2.2-  0.6+) 

940210 691  1.4-  0.5+    940706 691  0.7-  0.2-    010525 402  0.3-  0.2-  

940210 691 (2.4-  0.3+)   940710 691  0.5-  0.2-    010525 402  0.5+  1.9+  

940210 691  0.8-  1.1+    940710 691  0.5-  0.2-    010525 402  1.5-  1.3+  

940210 691 (2.5-  1.1+)   940710 691  1.1-  0.1-    010530 170 (5.0-  1.3-) 

940210 691  1.6-  0.7+    940713 360  0.6+  0.5-    010530 170 (4.2-  4.4-) 

940213 691  2.0-  0.7+    940713 360  1.6+  0.2-    



NAKANO

         **** Don't distribute anyone except personal use only ****

                (C) Copyright 2001 OAA/ComputingSection

write mail from CFAD0::NAKANO on 2001-06-02 22:39:55(JST).

 



–ß‚è‚Ü‚·B